N751XP LGKR-LLER

Flight info

Callsign N751XP
Flight time N/A
Altitude 45000
Route MALED UA14 ARA UL612 SIT L612 BLT A16 CVO L315 OBTAV W727 SHM R650 NALSO J10 NURIT
Aircraft C750/M-SBDE3FGHRWXY/S

Departure

Time 2026-04-27 15:09
Airport Corfu Ioannis Kapodistrias International Airport (LGKR)

Arrival

Time N/A
Airport Ramon International Airport (LLER)
Time Latitude Longitude Altitude Speed Heading
2026-04-27 14:47 39.61146 19.91158 8 ft 0 kts 259°
2026-04-27 14:52 39.60838 19.91319 8 ft 0 kts 77°
2026-04-27 14:55 39.60838 19.91320 8 ft 0 kts 77°
2026-04-27 15:04 39.60834 19.91303 8 ft 2 kts 77°
2026-04-27 15:04 39.60831 19.91284 7 ft 2 kts 80°
2026-04-27 15:04 39.60832 19.91265 7 ft 2 kts 106°
2026-04-27 15:04 39.60839 19.91248 7 ft 2 kts 130°
2026-04-27 15:05 39.60851 19.91237 8 ft 2 kts 155°
2026-04-27 15:05 39.60862 19.91232 8 ft 0 kts 170°
2026-04-27 15:06 39.60798 19.91245 7 ft 25 kts 171°
2026-04-27 15:06 39.60633 19.91277 4 ft 21 kts 211°
2026-04-27 15:06 39.60522 19.91163 4 ft 22 kts 200°
2026-04-27 15:07 39.60366 19.91176 4 ft 23 kts 170°
2026-04-27 15:07 39.60117 19.91235 4 ft 41 kts 171°
2026-04-27 15:07 39.59835 19.91309 7 ft 41 kts 169°
2026-04-27 15:07 39.59523 19.91389 7 ft 43 kts 168°
2026-04-27 15:08 39.59250 19.91461 7 ft 26 kts 167°
2026-04-27 15:08 39.59185 19.91468 7 ft 0 kts 333°
2026-04-27 15:08 39.59211 19.91459 7 ft 26 kts 349°
2026-04-27 15:08 39.59728 19.91333 7 ft 117 kts 349°
2026-04-27 15:09 39.60741 19.91084 157 ft 166 kts 350°
2026-04-27 15:09 39.61920 19.90830 815 ft 185 kts 356°
2026-04-27 15:09 39.63176 19.91357 1481 ft 205 kts 43°
2026-04-27 15:09 39.63770 19.93012 2359 ft 212 kts 90°
2026-04-27 15:10 39.63271 19.94746 3178 ft 219 kts 134°
2026-04-27 15:10 39.61920 19.95615 3915 ft 228 kts 175°
2026-04-27 15:10 39.60312 19.95411 4649 ft 238 kts 197°
2026-04-27 15:10 39.58977 19.94155 5263 ft 253 kts 234°
2026-04-27 15:11 39.58498 19.91954 6009 ft 263 kts 271°
2026-04-27 15:11 39.59139 19.89727 6776 ft 272 kts 307°
2026-04-27 15:11 39.60675 19.88365 7542 ft 276 kts 343°
2026-04-27 15:11 39.62565 19.88366 8302 ft 276 kts 18°
2026-04-27 15:12 39.64109 19.89736 9052 ft 274 kts 53°
2026-04-27 15:12 39.64782 19.91990 9747 ft 273 kts 87°
2026-04-27 15:12 39.64351 19.94364 10333 ft 277 kts 120°
2026-04-27 15:12 39.62974 19.96133 10698 ft 290 kts 147°
2026-04-27 15:13 39.61216 19.97631 10950 ft 313 kts 146°
2026-04-27 15:13 39.59354 19.99201 11602 ft 324 kts 147°
2026-04-27 15:13 39.57435 20.00817 12450 ft 332 kts 147°
2026-04-27 15:13 39.55480 20.02457 13416 ft 335 kts 148°
2026-04-27 15:14 39.53538 20.04088 14297 ft 340 kts 148°
2026-04-27 15:14 39.51541 20.05761 15174 ft 345 kts 148°
2026-04-27 15:14 39.49509 20.07466 16013 ft 350 kts 148°
2026-04-27 15:14 39.47449 20.09189 16854 ft 356 kts 148°
2026-04-27 15:15 39.45358 20.10939 17672 ft 360 kts 148°
2026-04-27 15:15 39.43249 20.12703 18432 ft 365 kts 148°
2026-04-27 15:15 39.41110 20.14488 19187 ft 369 kts 148°
2026-04-27 15:15 39.38967 20.16276 19893 ft 374 kts 148°
2026-04-27 15:16 39.36773 20.18107 20575 ft 379 kts 148°
2026-04-27 15:16 39.34526 20.19981 21264 ft 384 kts 148°
2026-04-27 15:16 39.32268 20.21862 21919 ft 389 kts 148°
2026-04-27 15:16 39.29994 20.23754 22568 ft 393 kts 148°
2026-04-27 15:17 39.27680 20.25680 23182 ft 398 kts 148°
2026-04-27 15:17 39.25330 20.27632 23855 ft 401 kts 148°
2026-04-27 15:17 39.22985 20.29582 24490 ft 405 kts 148°
2026-04-27 15:17 39.20714 20.31694 25122 ft 409 kts 141°
2026-04-27 15:18 39.18481 20.34034 25730 ft 412 kts 142°
2026-04-27 15:18 39.16246 20.36339 26331 ft 415 kts 142°
2026-04-27 15:18 39.13988 20.38665 26911 ft 418 kts 142°
2026-04-27 15:18 39.11684 20.41033 27507 ft 421 kts 142°
2026-04-27 15:19 39.09381 20.43400 28035 ft 425 kts 142°
2026-04-27 15:19 39.07066 20.45776 28587 ft 428 kts 142°
2026-04-27 15:19 39.04717 20.48170 29127 ft 431 kts 142°
2026-04-27 15:19 39.02317 20.50562 29636 ft 434 kts 142°
2026-04-27 15:20 38.99926 20.52951 30162 ft 437 kts 142°
2026-04-27 15:20 38.97510 20.55360 30633 ft 440 kts 142°
2026-04-27 15:20 38.95062 20.57800 31088 ft 443 kts 142°
2026-04-27 15:20 38.92623 20.60230 31509 ft 447 kts 142°
2026-04-27 15:21 38.90143 20.62698 31944 ft 449 kts 143°
2026-04-27 15:21 38.87688 20.65140 32371 ft 452 kts 143°
2026-04-27 15:21 38.85197 20.67694 32779 ft 455 kts 142°
2026-04-27 15:21 38.82741 20.70227 33165 ft 458 kts 142°
2026-04-27 15:22 38.80248 20.72793 33523 ft 462 kts 142°
2026-04-27 15:22 38.77713 20.75398 33924 ft 464 kts 143°
2026-04-27 15:22 38.75179 20.78002 34241 ft 468 kts 143°
2026-04-27 15:22 38.72636 20.80610 34609 ft 470 kts 143°
2026-04-27 15:23 38.70087 20.83224 35026 ft 470 kts 143°
2026-04-27 15:23 38.67550 20.85821 35425 ft 469 kts 143°
2026-04-27 15:23 38.64986 20.88446 35795 ft 470 kts 143°
2026-04-27 15:23 38.62438 20.91049 36176 ft 469 kts 143°
2026-04-27 15:24 38.59891 20.93650 36563 ft 470 kts 143°
2026-04-27 15:24 38.57390 20.96392 37005 ft 471 kts 140°
2026-04-27 15:24 38.54952 20.99171 37455 ft 471 kts 141°
2026-04-27 15:24 38.52517 21.01923 37855 ft 472 kts 141°
2026-04-27 15:25 38.50044 21.04712 38276 ft 472 kts 141°
2026-04-27 15:25 38.47581 21.07486 38657 ft 472 kts 141°
2026-04-27 15:25 38.45118 21.10256 38970 ft 473 kts 141°
2026-04-27 15:25 38.42650 21.13031 39292 ft 473 kts 141°
2026-04-27 15:26 38.40175 21.15808 39637 ft 473 kts 141°
2026-04-27 15:26 38.37736 21.18544 39876 ft 474 kts 141°
2026-04-27 15:26 38.35243 21.21341 40124 ft 474 kts 141°
2026-04-27 15:26 38.32775 21.24104 40365 ft 474 kts 141°
2026-04-27 15:27 38.30273 21.26901 40572 ft 475 kts 141°
2026-04-27 15:27 38.27787 21.29680 40776 ft 475 kts 141°
2026-04-27 15:27 38.25314 21.32442 40982 ft 476 kts 141°
2026-04-27 15:27 38.22845 21.35198 41212 ft 476 kts 141°
2026-04-27 15:28 38.20335 21.37994 41401 ft 477 kts 141°
2026-04-27 15:28 38.17856 21.40752 41610 ft 477 kts 141°
2026-04-27 15:28 38.15344 21.43575 41780 ft 478 kts 139°
2026-04-27 15:28 38.12954 21.46522 41943 ft 479 kts 137°
2026-04-27 15:29 38.10563 21.49453 42129 ft 480 kts 138°
2026-04-27 15:29 38.08160 21.52391 42291 ft 480 kts 138°
2026-04-27 15:29 38.05752 21.55329 42454 ft 481 kts 138°
2026-04-27 15:29 38.03333 21.58276 42598 ft 482 kts 138°
2026-04-27 15:30 38.00928 21.61206 42762 ft 482 kts 138°
2026-04-27 15:30 37.98526 21.64126 42901 ft 482 kts 138°
2026-04-27 15:30 37.96077 21.67106 43062 ft 482 kts 139°
2026-04-27 15:30 37.93652 21.70045 43214 ft 482 kts 139°
2026-04-27 15:31 37.91239 21.72974 43320 ft 483 kts 139°
2026-04-27 15:31 37.88826 21.75894 43487 ft 483 kts 139°
2026-04-27 15:31 37.86407 21.78823 43615 ft 483 kts 139°
2026-04-27 15:31 37.83968 21.81773 43728 ft 483 kts 139°
2026-04-27 15:32 37.81553 21.84688 43853 ft 483 kts 139°
2026-04-27 15:32 37.79146 21.87595 43972 ft 483 kts 139°
2026-04-27 15:32 37.74263 21.93484 44185 ft 483 kts 139°
2026-04-27 15:33 37.71838 21.96401 44288 ft 484 kts 139°
2026-04-27 15:33 37.69389 21.99344 44395 ft 484 kts 139°
2026-04-27 15:33 37.66980 22.02240 44508 ft 483 kts 139°
2026-04-27 15:33 37.64509 22.05205 44619 ft 483 kts 139°
2026-04-27 15:34 37.62108 22.08087 44729 ft 483 kts 139°
2026-04-27 15:34 37.59642 22.11036 44860 ft 483 kts 139°
2026-04-27 15:34 37.57241 22.13913 44996 ft 482 kts 139°
2026-04-27 15:34 37.54795 22.16834 45110 ft 482 kts 139°
2026-04-27 15:35 37.49916 22.22661 45126 ft 487 kts 139°
2026-04-27 15:35 37.44967 22.28557 45134 ft 492 kts 139°
2026-04-27 15:36 37.40057 22.34589 45107 ft 499 kts 130°
2026-04-27 15:36 37.35988 22.41678 45114 ft 505 kts 127°
2026-04-27 15:37 37.31846 22.48887 45131 ft 510 kts 127°
2026-04-27 15:37 37.27671 22.56144 45140 ft 515 kts 127°
2026-04-27 15:38 37.23467 22.63437 45148 ft 521 kts 127°
2026-04-27 15:38 37.19203 22.70812 45142 ft 526 kts 128°
2026-04-27 15:39 37.14881 22.78272 45137 ft 531 kts 128°
2026-04-27 15:39 37.10524 22.85781 45119 ft 536 kts 128°
2026-04-27 15:40 37.06134 22.93325 45101 ft 541 kts 128°
2026-04-27 15:40 37.01688 23.00951 45092 ft 544 kts 128°
2026-04-27 15:41 36.97232 23.08570 45096 ft 547 kts 128°
2026-04-27 15:41 36.92738 23.16247 45087 ft 549 kts 128°
2026-04-27 15:42 36.88204 23.23966 45076 ft 551 kts 128°
2026-04-27 15:42 36.83661 23.31686 45078 ft 552 kts 128°